Location: Unspecified
(0.0000°N, 0.0000°E)
Time: 13:24:45
(UTC+00:00)

Isis 2 - Visible Passes

Search period start: 23 February 2024 00:00
Search period end: 04 March 2024 00:00
Orbit: 1355 x 1426 km, 88.2° (Epoch: 22 February)

Date Brightness Start Highest point End Pass type
(mag) Time Alt. Az. Time Alt. Az. Time Alt. Az.
23 Feb 6.8 19:52:40 10° S 20:00:49 78° W 20:08:51 10° N visible
24 Feb 7.5 18:38:10 10° SE 18:44:44 27° E 18:51:10 10° NNE visible
24 Feb 8.0 20:30:47 10° SSW 20:37:57 35° W 20:45:03 10° NNW visible
25 Feb 6.7 19:13:53 10° SSE 19:21:53 62° E 19:29:45 10° N visible
25 Feb 9.1 21:11:20 10° WSW 21:15:03 14° W 21:18:45 10° WNW visible
26 Feb 7.1 19:51:02 10° S 19:59:02 62° W 20:06:56 10° NNW visible
27 Feb 7.2 18:35:48 10° SSE 18:42:56 34° E 18:49:58 10° NNE visible
27 Feb 8.4 20:29:37 10° SSW 20:36:09 27° W 20:42:39 10° NW visible
28 Feb 6.6 19:11:59 10° S 19:20:06 77° E 19:28:06 10° N visible
29 Feb 10.0 05:43:13 10° ENE 05:45:15 11° E 05:47:18 10° ESE visible
29 Feb 7.5 19:49:30 10° SSW 19:57:14 49° W 20:04:54 10° NNW visible
01 Mar 7.0 18:33:35 10° SSE 18:41:09 43° E 18:48:36 10° NNE visible
01 Mar 8.8 20:28:40 10° SW 20:34:22 21° W 20:40:02 10° NW visible
02 Mar 6.7 19:10:11 10° S 19:18:18 86° W 19:26:20 10° N visible
03 Mar 9.8 05:39:03 10° ENE 05:43:28 15° E 05:47:54 10° SE visible
03 Mar 8.0 19:48:06 10° SSW 19:55:27 39° W 20:02:44 10° NNW visible
